Location: Elstree
(51.6403°N, 0.2969°W)
Time: 12:40:39
(UTC+00:00)

Cosmos 1354 Rocket - Pass Details

Date: 27 June 2021
Orbit: 764 x 783 km, 74.0° (Epoch: 25 July)

Event Time Altitude Azimuth Distance (km) Brightness Sun altitude
Rises 22:41:49 0° 324° (NW) 3,284 8.9 -12.9°
Reaches altitude 10° 22:44:53 10° 307° (NW) 2,350 7.4 -13.1°
Maximum altitude 22:48:26 18° 265° (W) 1,831 6.1 -13.2°
Drops below altitude 10° 22:51:58 10° 223° (SW) 2,334 6.2 -13.4°
Enters shadow 22:53:18 - 213° (SSW) 2,710 6.5 -13.5°
